Find Timation I

NORAD ID: 2847 Int'l Des: 1967-053 Owner: NRL Country: US operational
LEOCIRCULAR

Live Position

Loading 3D Globe...

About Timation I

Description loading...

Upcoming Passes

Passes for default location (London). Set your location on the main map for personalized predictions.

Altitude History

Loading altitude history...

Two-Line Element Set

1 02847U 67053E 26106.89830709 .00000167 00000-0 14235-3 0 9993
2 02847 69.9665 339.9728 0005695 167.3130 192.8123 14.02960371 5195
Epoch: Apr 16, 2026 • Age: 15 hours

Current Status

Altitude 910.1 km
Velocity 7.40 km/s
Sub-Earth Point -70.06°S, 145.97°W
Type other

Most Searched